Zurück zum Katalog

CZ-6A DEB

AktivPO
NORAD 60706·DEBRIS·🇨🇳 China

Gestartet Aug 6, 2024 von Taiyuan Satellite Launch Center

Loading…

Nächste Überflüge (nächste 24 Stunden)

TLE

AktuellSource: Space-Track

Epoche: Sep 14, 2026, 11:15 UTC

1 60706U 24140DK  26257.46933306  .00000377  00000-0  81067-4 0  9999
2 60706  89.0117 261.3428 0113427 326.6276  32.7816 14.52606173110748

Verfolge CZ-6A DEB in Echtzeit mit AllMySat

Download on the App Store